Weather History for Louisburg, NC

Change the Weather History Date:

Wednesday, January 15, 2014

  Actual Average (KRDU) Record (KRDU)
Temperature  
Mean Temperature 48 °F 41 °F  
Max Temperature 60 °F 51 °F 79 °F (1907)
Min Temperature 35 °F 31 °F 9 °F (1964)
Degree Days  
Heating Degree Days 18 24  
Month to date heating degree days 366  
Since 1 July heating degree days 1617  
Cooling Degree Days 0 0  
Month to date cooling degree days 0  
Year to date cooling degree days 0  
Moisture  
Dew Point 39 °F    
Average Humidity 75    
Maximum Humidity 93    
Minimum Humidity 42    
Precipitation  
Precipitation 0.00 in 0.11 in 1.92 in (1995)
Month to date precipitation 1.69  
Year to date precipitation 1.69  
Snow  
Snow 0.00 in 0.20 in 3.00 in (1893)
Month to date snowfall 1.3  
Since 1 July snowfall 2.0  
Snow Depth -    
Sea Level Pressure  
Sea Level Pressure 29.92 in    
Wind  
Wind Speed 3 mph (SSW)    
Max Wind Speed 12 mph    
Max Gust Speed -    
Visibility 7 miles    
Events Fog    
T = Trace of Precipitation, MM = Missing Value Source: NWS Daily Summary

Daily Weather History Graph

Daily Weather History Graph

Search for Another Location

Airport:

Trip Planner

Search our weather history database for the weather conditions in past years. The results will help you decide how hot, cold, wet, or windy it might be!

Date:

Astronomy

Jan. 15, 2014 Rise Set
Actual Time 7:23 AM EST 5:22 PM EST
Civil Twilight 6:55 AM EST 5:50 PM EST
Nautical Twilight 6:23 AM EST 6:22 PM EST
Astronomical Twilight 5:53 AM EST 6:52 PM EST
Moon 5:16 PM EST (1/15) 6:39 AM EST (1/15)
Length of Visible Light 10h 55m
Length of Day
9h 59m
Full, 100% of the Moon is Illuminated
Jan 15
Full
Jan 15
Full
Jan 24
Last Quarter
Jan 30
New
Feb 6
First Quarter

Hourly Weather History & Observations

Time (EST) Temp. Windchill Dew Point Humidity Pressure Visibility Wind Dir Wind Speed Gust Speed Precip Events Conditions
12:15 AM 42.8 °F 41.1 °F 41.0 °F 93% 29.97 in 10.0 mi South 3.5 mph - N/A   Clear
12:35 AM 42.8 °F 41.1 °F 41.0 °F 93% 29.97 in 10.0 mi South 3.5 mph - N/A   Clear
12:55 AM 42.8 °F 41.1 °F 41.0 °F 93% 29.97 in 5.0 mi South 3.5 mph - N/A   Clear
1:15 AM 42.8 °F 41.1 °F 41.0 °F 93% 29.97 in 2.5 mi South 3.5 mph - N/A   Clear
1:35 AM 44.6 °F 43.1 °F 42.8 °F 93% 29.97 in 3.0 mi South 3.5 mph - N/A   Clear
1:55 AM 42.8 °F - 41.0 °F 93% 29.97 in 1.2 mi Calm Calm - N/A   Mist
2:15 AM 44.6 °F 43.1 °F 42.8 °F 93% 29.97 in 2.5 mi SSW 3.5 mph - N/A   Clear
2:35 AM 44.6 °F 43.1 °F 42.8 °F 93% 29.97 in 1.8 mi South 3.5 mph - N/A   Mist
2:55 AM 37.4 °F - 35.6 °F 93% 29.96 in 0.5 mi Calm Calm - N/A Fog Fog
3:15 AM 35.6 °F - 33.8 °F 93% 29.96 in 0.2 mi Calm Calm - N/A Fog Fog
3:35 AM 37.4 °F - 35.6 °F 93% 29.97 in 0.2 mi Calm Calm - N/A Fog Fog
3:55 AM 37.4 °F - 35.6 °F 93% 29.96 in 0.2 mi Calm Calm - N/A Fog Fog
4:15 AM 37.4 °F - 35.6 °F 93% 29.96 in 0.2 mi Calm Calm - N/A Fog Fog
4:35 AM 39.2 °F - 37.4 °F 93% 29.96 in 0.2 mi Calm Calm - N/A Fog Fog
4:55 AM 37.4 °F - 35.6 °F 93% 29.96 in 0.5 mi Calm Calm - N/A Fog Fog
5:15 AM 39.2 °F - 35.6 °F 87% 29.97 in 0.5 mi Calm Calm - N/A Fog Fog
5:35 AM 41.0 °F - 37.4 °F 87% 29.97 in 0.2 mi Calm Calm - N/A Fog Fog
5:55 AM 41.0 °F - 37.4 °F 87% 29.97 in 0.2 mi Calm Calm - N/A Fog Fog
6:15 AM 41.0 °F - 37.4 °F 87% 29.97 in 0.2 mi Calm Calm - N/A Fog Fog
6:35 AM 39.2 °F - 37.4 °F 93% 29.97 in 0.5 mi Calm Calm - N/A Fog Fog
6:55 AM 41.0 °F 39.0 °F 37.4 °F 87% 29.96 in 0.5 mi SSE 3.5 mph - N/A Fog Fog
7:15 AM 41.0 °F 39.0 °F 39.2 °F 93% 29.97 in 0.2 mi South 3.5 mph - N/A Fog Fog
7:35 AM 41.0 °F - 37.4 °F 87% 29.96 in 0.2 mi Calm Calm - N/A Fog Fog
7:55 AM 41.0 °F - 39.2 °F 93% 29.97 in 0.2 mi Calm Calm - N/A Fog Fog
8:15 AM 41.0 °F 38.0 °F 39.2 °F 93% 29.97 in 0.2 mi South 4.6 mph - N/A Fog Fog
8:35 AM 41.0 °F - 39.2 °F 93% 29.97 in 0.2 mi Calm Calm - N/A Fog Fog
8:55 AM 42.8 °F - 41.0 °F 93% 29.98 in 0.2 mi Calm Calm - N/A Fog Fog
9:15 AM 44.6 °F - 42.8 °F 93% 29.98 in 3.0 mi Calm Calm - N/A   Scattered Clouds
9:35 AM 46.4 °F 42.9 °F 44.6 °F 93% 29.98 in 10.0 mi South 6.9 mph - N/A   Clear
9:55 AM 50.0 °F - 46.4 °F 87% 29.98 in 10.0 mi South 8.1 mph - N/A   Clear
10:15 AM 50.0 °F - 46.4 °F 87% 29.98 in 10.0 mi South 3.5 mph - N/A   Clear
10:35 AM 51.8 °F - 46.4 °F 82% 29.98 in 7.0 mi South 5.8 mph - N/A   Clear
10:55 AM 51.8 °F - 46.4 °F 82% 29.96 in 7.0 mi South 6.9 mph - N/A   Clear
11:15 AM 53.6 °F - 44.6 °F 72% 29.95 in 10.0 mi South 5.8 mph - N/A   Clear
11:35 AM 53.6 °F - 44.6 °F 72% 29.94 in 10.0 mi South 9.2 mph - N/A   Clear
11:55 AM 55.4 °F - 42.8 °F 63% 29.92 in 10.0 mi South 11.5 mph - N/A   Clear
12:15 PM 59.0 °F - 42.8 °F 55% 29.90 in 10.0 mi SSW 4.6 mph - N/A   Clear
12:35 PM 59.0 °F - 42.8 °F 55% 29.90 in 10.0 mi South 10.4 mph - N/A   Clear
12:55 PM 59.0 °F - 41.0 °F 51% 29.88 in 10.0 mi South 5.8 mph - N/A   Clear
1:15 PM 59.0 °F - 41.0 °F 51% 29.87 in 10.0 mi South 9.2 mph - N/A   Clear
1:35 PM 59.0 °F - 41.0 °F 51% 29.86 in 10.0 mi SSE 8.1 mph - N/A   Clear
1:55 PM 60.8 °F - 41.0 °F 48% 29.85 in 10.0 mi South 9.2 mph - N/A   Clear
2:15 PM 60.8 °F - 39.2 °F 45% 29.84 in 10.0 mi South 8.1 mph - N/A   Clear
2:35 PM 60.8 °F - 39.2 °F 45% 29.84 in 10.0 mi South 8.1 mph - N/A   Clear
2:55 PM 60.8 °F - 39.2 °F 45% 29.85 in 10.0 mi South 6.9 mph - N/A   Clear
3:15 PM 60.8 °F - 39.2 °F 45% 29.84 in 10.0 mi Calm Calm - N/A   Clear
3:35 PM 60.8 °F - 37.4 °F 42% 29.84 in 10.0 mi South 6.9 mph - N/A   Clear
3:55 PM 60.8 °F - 39.2 °F 45% 29.84 in 10.0 mi South 5.8 mph - N/A   Clear
4:15 PM 60.8 °F - 37.4 °F 42% 29.84 in 10.0 mi Calm Calm - N/A   Clear
4:35 PM 59.0 °F - 39.2 °F 48% 29.84 in 10.0 mi Calm Calm - N/A   Clear
4:55 PM 57.2 °F - 41.0 °F 55% 29.84 in 10.0 mi Calm Calm - N/A   Clear
5:15 PM 53.6 °F - 41.0 °F 62% 29.85 in 10.0 mi Calm Calm - N/A   Clear
5:35 PM 51.8 °F - 41.0 °F 67% 29.84 in 10.0 mi Calm Calm - N/A   Clear
5:55 PM 50.0 °F - 42.8 °F 76% 29.84 in 10.0 mi Calm Calm - N/A   Clear
6:15 PM 46.4 °F - 42.8 °F 87% 29.85 in 10.0 mi Calm Calm - N/A   Clear
6:35 PM 46.4 °F - 42.8 °F 87% 29.86 in 10.0 mi Calm Calm - N/A   Clear
6:55 PM 44.6 °F - 41.0 °F 87% 29.86 in 10.0 mi Calm Calm - N/A   Clear
7:15 PM 44.6 °F - 41.0 °F 87% 29.86 in 10.0 mi Calm Calm - N/A   Clear
7:35 PM 44.6 °F - 41.0 °F 87% 29.86 in 10.0 mi Calm Calm - N/A   Clear
7:55 PM 42.8 °F - 41.0 °F 93% 29.87 in 10.0 mi Calm Calm - N/A   Scattered Clouds
8:15 PM 48.2 °F - 37.4 °F 66% 29.88 in 10.0 mi NW 4.6 mph - N/A   Scattered Clouds
8:35 PM 46.4 °F - 35.6 °F 66% 29.88 in 10.0 mi Calm Calm - N/A   Clear
8:55 PM 46.4 °F 43.5 °F 33.8 °F 62% 29.90 in 10.0 mi NW 5.8 mph - N/A   Scattered Clouds
9:15 PM 46.4 °F 45.2 °F 32.0 °F 57% 29.91 in 10.0 mi NW 3.5 mph - N/A   Mostly Cloudy
9:35 PM 44.6 °F 41.4 °F 32.0 °F 61% 29.90 in 10.0 mi NNW 5.8 mph - N/A   Scattered Clouds
9:55 PM 44.6 °F 42.2 °F 32.0 °F 61% 29.90 in 10.0 mi NNW 4.6 mph - N/A   Clear
10:15 PM 44.6 °F 43.1 °F 32.0 °F 61% 29.90 in 10.0 mi NW 3.5 mph - N/A   Clear
10:35 PM 44.6 °F 42.2 °F 32.0 °F 61% 29.90 in 10.0 mi NNW 4.6 mph - N/A   Clear
10:55 PM 42.8 °F 41.1 °F 32.0 °F 66% 29.90 in 10.0 mi NW 3.5 mph - N/A   Clear
11:15 PM 42.8 °F 41.1 °F 32.0 °F 66% 29.91 in 10.0 mi NW 3.5 mph - N/A   Clear
11:35 PM 42.8 °F 39.3 °F 32.0 °F 66% 29.92 in 10.0 mi NW 5.8 mph - N/A   Clear
11:55 PM 42.8 °F 39.3 °F 32.0 °F 66% 29.92 in 10.0 mi WNW 5.8 mph - N/A   Scattered Clouds